Year,Month,Day,Hour,Minute,Value (Times are PST for temperature in C)
2015,06,30,00,00,17.90
2015,06,30,00,01,17.90
2015,06,30,00,02,17.90
2015,06,30,00,03,18.10
2015,06,30,00,04,18.20
2015,06,30,00,05,18.20
2015,06,30,00,06,18.20
2015,06,30,00,07,18.30
2015,06,30,00,08,18.30
2015,06,30,00,09,18.30
2015,06,30,00,10,18.30
2015,06,30,00,11,18.30
2015,06,30,00,12,18.20
2015,06,30,00,13,18.20
2015,06,30,00,14,18.20
2015,06,30,00,15,18.20
2015,06,30,00,16,18.20
2015,06,30,00,17,18.30
2015,06,30,00,18,18.30
2015,06,30,00,19,18.30
2015,06,30,00,20,18.30
2015,06,30,00,21,18.30
2015,06,30,00,22,18.30
2015,06,30,00,23,18.30
2015,06,30,00,24,18.40
2015,06,30,00,25,18.40
2015,06,30,00,26,18.40
2015,06,30,00,27,18.50
2015,06,30,00,28,18.50
2015,06,30,00,29,18.60
2015,06,30,00,30,18.60
2015,06,30,00,31,18.70
2015,06,30,00,32,18.70
2015,06,30,00,33,18.70
2015,06,30,00,34,18.80
2015,06,30,00,35,18.80
2015,06,30,00,36,18.80
2015,06,30,00,37,18.90
2015,06,30,00,38,18.90
2015,06,30,00,39,18.90
2015,06,30,00,40,18.90
2015,06,30,00,41,18.90
2015,06,30,00,42,18.90
2015,06,30,00,43,19.10
2015,06,30,00,44,19.10
2015,06,30,00,45,19.10
2015,06,30,00,46,19.10
2015,06,30,00,47,19.10
2015,06,30,00,48,19.10
2015,06,30,00,49,19.10
2015,06,30,00,50,19.10
2015,06,30,00,52,19.10
2015,06,30,00,53,19.10
2015,06,30,00,54,19.10
2015,06,30,00,56,19.10
2015,06,30,00,57,19.10
2015,06,30,00,58,19.10
2015,06,30,00,59,19.10
2015,06,30,01,01,19.10
2015,06,30,01,02,19.10
2015,06,30,01,03,19.10
2015,06,30,01,04,19.10
2015,06,30,01,06,19.10
2015,06,30,01,07,19.10
2015,06,30,01,08,19.10
2015,06,30,01,09,18.90
2015,06,30,01,11,18.90
2015,06,30,01,12,18.90
2015,06,30,01,13,18.80
2015,06,30,01,14,18.70
2015,06,30,01,16,18.60
2015,06,30,01,17,18.60
2015,06,30,01,18,18.50
2015,06,30,01,19,18.50
2015,06,30,01,21,18.40
2015,06,30,01,22,18.40
2015,06,30,01,23,18.30
2015,06,30,01,24,18.30
2015,06,30,01,26,18.30
2015,06,30,01,27,18.20
2015,06,30,01,28,18.20
2015,06,30,01,29,18.20
2015,06,30,01,31,18.20
2015,06,30,01,32,18.20
2015,06,30,01,33,18.20
2015,06,30,01,34,18.20
2015,06,30,01,36,18.20
2015,06,30,01,37,18.20
2015,06,30,01,38,18.20
2015,06,30,01,39,18.20
2015,06,30,01,41,18.20
2015,06,30,01,42,18.20
2015,06,30,01,43,18.20
2015,06,30,01,44,18.20
2015,06,30,01,46,18.30
2015,06,30,01,47,18.30
2015,06,30,01,48,18.30
2015,06,30,01,49,18.40
2015,06,30,01,51,18.40
2015,06,30,01,52,18.50
2015,06,30,01,53,18.50
2015,06,30,01,54,18.50
2015,06,30,01,56,18.60
2015,06,30,01,57,18.60
2015,06,30,01,58,18.60
2015,06,30,01,59,18.60
2015,06,30,02,01,18.60
2015,06,30,02,02,18.60
2015,06,30,02,03,18.60
2015,06,30,02,04,18.60
2015,06,30,02,06,18.60
2015,06,30,02,07,18.60
2015,06,30,02,08,18.60
2015,06,30,02,09,18.60
2015,06,30,02,11,18.60
2015,06,30,02,12,18.60
2015,06,30,02,13,18.60
2015,06,30,02,14,18.60
2015,06,30,02,15,18.60
2015,06,30,02,16,18.60
2015,06,30,02,17,18.60
2015,06,30,02,18,18.60
2015,06,30,02,19,18.50
2015,06,30,02,20,18.50
2015,06,30,02,21,18.50
2015,06,30,02,22,18.50
2015,06,30,02,23,18.40
2015,06,30,02,24,18.40
2015,06,30,02,25,18.40
2015,06,30,02,26,18.40
2015,06,30,02,27,18.30
2015,06,30,02,28,18.30
2015,06,30,02,29,18.30
2015,06,30,02,30,18.30
2015,06,30,02,31,18.30
2015,06,30,02,32,18.30
2015,06,30,02,33,18.20
2015,06,30,02,34,18.20
2015,06,30,02,35,18.20
2015,06,30,02,36,18.20
2015,06,30,02,37,18.20
2015,06,30,02,38,18.20
2015,06,30,02,39,18.20
2015,06,30,02,41,18.20
2015,06,30,02,42,18.20
2015,06,30,02,43,18.20
2015,06,30,02,44,18.20
2015,06,30,02,46,18.20
2015,06,30,02,47,18.20
2015,06,30,02,48,18.20
2015,06,30,02,49,18.20
2015,06,30,02,51,18.20
2015,06,30,02,52,18.20
2015,06,30,02,53,18.20
2015,06,30,02,54,18.20
2015,06,30,02,56,18.20
2015,06,30,02,57,18.20
2015,06,30,02,58,18.20
2015,06,30,02,59,18.10
2015,06,30,03,01,17.90
2015,06,30,03,02,17.90
2015,06,30,03,03,17.90
2015,06,30,03,04,17.90
2015,06,30,03,06,17.90
2015,06,30,03,07,17.90
2015,06,30,03,08,17.80
2015,06,30,03,09,17.80
2015,06,30,03,11,17.80
2015,06,30,03,12,17.80
2015,06,30,03,13,17.80
2015,06,30,03,14,17.80
2015,06,30,03,16,17.80
2015,06,30,03,17,17.80
2015,06,30,03,18,17.80
2015,06,30,03,19,17.80
2015,06,30,03,21,17.80
2015,06,30,03,22,17.80
2015,06,30,03,23,17.80
2015,06,30,03,24,17.80
2015,06,30,03,26,17.70
2015,06,30,03,27,17.70
2015,06,30,03,28,17.60
2015,06,30,03,29,17.50
2015,06,30,03,31,17.30
2015,06,30,03,32,17.30
2015,06,30,03,33,17.30
2015,06,30,03,34,17.20
2015,06,30,03,36,17.00
2015,06,30,03,37,17.00
2015,06,30,03,38,16.90
2015,06,30,03,39,16.80
2015,06,30,03,41,16.70
2015,06,30,03,42,16.70
2015,06,30,03,43,16.70
2015,06,30,03,44,16.70
2015,06,30,03,46,16.70
2015,06,30,03,47,16.70
2015,06,30,03,48,16.60
2015,06,30,03,49,16.60
2015,06,30,03,50,16.60
2015,06,30,03,51,16.60
2015,06,30,03,52,16.60
2015,06,30,03,53,16.40
2015,06,30,03,54,16.40
2015,06,30,03,55,16.40
2015,06,30,03,56,16.40
2015,06,30,03,57,16.40
2015,06,30,03,58,16.40
2015,06,30,03,59,16.40
2015,06,30,04,00,16.30
2015,06,30,04,01,16.30
2015,06,30,04,02,16.30
2015,06,30,04,03,16.20
2015,06,30,04,04,16.20
2015,06,30,04,05,16.20
2015,06,30,04,06,16.10
2015,06,30,04,07,16.10
2015,06,30,04,08,16.10
2015,06,30,04,09,16.10
2015,06,30,04,10,16.10
2015,06,30,04,11,15.90
2015,06,30,04,12,15.90
2015,06,30,04,13,15.80
2015,06,30,04,14,15.80
2015,06,30,04,15,15.80
2015,06,30,04,16,15.80
2015,06,30,04,17,15.80
2015,06,30,04,18,15.80
2015,06,30,04,19,15.80
2015,06,30,04,20,15.70
2015,06,30,04,21,15.70
2015,06,30,04,22,15.70
2015,06,30,04,23,15.60
2015,06,30,04,24,15.60
2015,06,30,04,25,15.60
2015,06,30,04,26,15.60
2015,06,30,04,27,15.60
2015,06,30,04,28,15.50
2015,06,30,04,29,15.50
2015,06,30,04,30,15.50
2015,06,30,04,31,15.50
2015,06,30,04,32,15.50
2015,06,30,04,33,15.50
2015,06,30,04,34,15.50
2015,06,30,04,35,15.50
2015,06,30,04,36,15.40
2015,06,30,04,37,15.40
2015,06,30,04,38,15.40
2015,06,30,04,39,15.40
2015,06,30,04,40,15.40
2015,06,30,04,41,15.40
2015,06,30,04,43,15.40
2015,06,30,04,44,15.30
2015,06,30,04,46,15.30
2015,06,30,04,47,15.30
2015,06,30,04,48,15.30
2015,06,30,04,49,15.30
2015,06,30,04,51,15.30
2015,06,30,04,52,15.30
2015,06,30,04,53,15.30
2015,06,30,04,54,15.30
2015,06,30,04,56,15.20
2015,06,30,04,57,15.20
2015,06,30,04,58,15.20
2015,06,30,04,59,15.20
2015,06,30,05,01,15.10
2015,06,30,05,02,15.10
2015,06,30,05,03,15.10
2015,06,30,05,04,15.10
2015,06,30,05,06,15.10
2015,06,30,05,07,15.00
2015,06,30,05,08,15.00
2015,06,30,05,09,15.00
2015,06,30,05,11,15.00
2015,06,30,05,12,15.00
2015,06,30,05,13,15.00
2015,06,30,05,14,14.90
2015,06,30,05,16,14.90
2015,06,30,05,17,14.90
2015,06,30,05,18,14.90
2015,06,30,05,19,14.90
2015,06,30,05,21,14.80
2015,06,30,05,22,14.80
2015,06,30,05,23,14.80
2015,06,30,05,24,14.80
2015,06,30,05,26,14.80
2015,06,30,05,27,14.80
2015,06,30,05,28,14.80
2015,06,30,05,29,14.80
2015,06,30,05,31,14.80
2015,06,30,05,32,14.80
2015,06,30,05,33,14.80
2015,06,30,05,34,14.80
2015,06,30,05,36,14.80
2015,06,30,05,37,14.80
2015,06,30,05,38,14.80
2015,06,30,05,39,14.80
2015,06,30,05,41,14.80
2015,06,30,05,42,14.80
2015,06,30,05,43,14.80
2015,06,30,05,44,14.80
2015,06,30,05,46,14.70
2015,06,30,05,47,14.70
2015,06,30,05,48,14.70
2015,06,30,05,49,14.70
2015,06,30,05,51,14.60
2015,06,30,05,52,14.60
2015,06,30,05,53,14.60
2015,06,30,05,54,14.60
2015,06,30,05,56,14.60
2015,06,30,05,57,14.60
2015,06,30,05,58,14.60
2015,06,30,05,59,14.60
2015,06,30,06,01,14.60
2015,06,30,06,02,14.50
2015,06,30,06,03,14.50
2015,06,30,06,04,14.50
2015,06,30,06,05,14.50
2015,06,30,06,06,14.50
2015,06,30,06,07,14.50
2015,06,30,06,08,14.50
2015,06,30,06,09,14.50
2015,06,30,06,10,14.50
2015,06,30,06,11,14.50
2015,06,30,06,12,14.50
2015,06,30,06,13,14.50
2015,06,30,06,14,14.50
2015,06,30,06,15,14.50
2015,06,30,06,16,14.50
2015,06,30,06,17,14.50
2015,06,30,06,18,14.50
2015,06,30,06,19,14.50
2015,06,30,06,20,14.50
2015,06,30,06,21,14.50
2015,06,30,06,22,14.50
2015,06,30,06,23,14.50
2015,06,30,06,24,14.50
2015,06,30,06,25,14.50
2015,06,30,06,26,14.50
2015,06,30,06,27,14.50
2015,06,30,06,28,14.50
2015,06,30,06,29,14.50
2015,06,30,06,30,14.50
2015,06,30,06,31,14.50
2015,06,30,06,32,14.50
2015,06,30,06,33,14.50
2015,06,30,06,34,14.50
2015,06,30,06,35,14.50
2015,06,30,06,36,14.50
2015,06,30,06,37,14.50
2015,06,30,06,38,14.50
2015,06,30,06,39,14.50
2015,06,30,06,40,14.60
2015,06,30,06,41,14.60
2015,06,30,06,42,14.60
2015,06,30,06,43,14.60
2015,06,30,06,44,14.60
2015,06,30,06,45,14.60
2015,06,30,06,47,14.70
2015,06,30,06,49,14.70
2015,06,30,06,51,14.70
2015,06,30,06,52,14.80
2015,06,30,06,53,14.80
2015,06,30,06,54,14.80
2015,06,30,06,56,14.80
2015,06,30,06,57,14.80
2015,06,30,06,58,14.80
2015,06,30,06,59,14.80
2015,06,30,07,01,14.80
2015,06,30,07,02,14.90
2015,06,30,07,03,14.90
2015,06,30,07,04,14.90
2015,06,30,07,06,15.00
2015,06,30,07,07,15.00
2015,06,30,07,08,15.00
2015,06,30,07,09,15.10
2015,06,30,07,11,15.10
2015,06,30,07,12,15.20
2015,06,30,07,13,15.20
2015,06,30,07,14,15.20
2015,06,30,07,16,15.30
2015,06,30,07,17,15.30
2015,06,30,07,18,15.30
2015,06,30,07,19,15.30
2015,06,30,07,21,15.30
2015,06,30,07,22,15.30
2015,06,30,07,23,15.30
2015,06,30,07,24,15.40
2015,06,30,07,26,15.40
2015,06,30,07,27,15.40
2015,06,30,07,28,15.50
2015,06,30,07,29,15.50
2015,06,30,07,31,15.50
2015,06,30,07,32,15.50
2015,06,30,07,33,15.50
2015,06,30,07,34,15.50
2015,06,30,07,36,15.50
2015,06,30,07,37,15.50
2015,06,30,07,38,15.50
2015,06,30,07,39,15.50
2015,06,30,07,41,15.50
2015,06,30,07,42,15.50
2015,06,30,07,43,15.50
2015,06,30,07,44,15.50
2015,06,30,07,46,15.50
2015,06,30,07,47,15.50
2015,06,30,07,48,15.50
2015,06,30,07,49,15.50
2015,06,30,07,51,15.50
2015,06,30,07,52,15.60
2015,06,30,07,53,15.50
2015,06,30,07,54,15.50
2015,06,30,07,56,15.50
2015,06,30,07,57,15.40
2015,06,30,07,58,15.40
2015,06,30,07,59,15.30
2015,06,30,08,01,15.30
2015,06,30,08,02,15.30
2015,06,30,08,03,15.30
2015,06,30,08,04,15.30
2015,06,30,08,06,15.30
2015,06,30,08,07,15.30
2015,06,30,08,08,15.30
2015,06,30,08,09,15.30
2015,06,30,08,11,15.40
2015,06,30,08,12,15.40
2015,06,30,08,13,15.40
2015,06,30,08,14,15.40
2015,06,30,08,16,15.50
2015,06,30,08,17,15.60
2015,06,30,08,18,15.60
2015,06,30,08,19,15.60
2015,06,30,08,21,15.70
2015,06,30,08,22,15.70
2015,06,30,08,23,15.70
2015,06,30,08,24,15.70
2015,06,30,08,25,15.70
2015,06,30,08,26,15.70
2015,06,30,08,27,15.70
2015,06,30,08,28,15.70
2015,06,30,08,29,15.70
2015,06,30,08,30,15.80
2015,06,30,08,31,15.80
2015,06,30,08,32,15.80
2015,06,30,08,33,15.90
2015,06,30,08,34,16.10
2015,06,30,08,35,16.10
2015,06,30,08,36,16.20
2015,06,30,08,37,16.30
2015,06,30,08,38,16.40
2015,06,30,08,39,16.40
2015,06,30,08,40,16.60
2015,06,30,08,41,16.70
2015,06,30,08,42,16.70
2015,06,30,08,43,16.80
2015,06,30,08,44,16.80
2015,06,30,08,45,16.90
2015,06,30,08,46,17.00
2015,06,30,08,47,17.00
2015,06,30,08,48,17.10
2015,06,30,08,49,17.20
2015,06,30,08,50,17.20
2015,06,30,08,51,17.30
2015,06,30,08,52,17.30
2015,06,30,08,53,17.30
2015,06,30,08,54,17.30
2015,06,30,08,55,17.30
2015,06,30,08,56,17.30
2015,06,30,08,57,17.30
2015,06,30,08,58,17.30
2015,06,30,08,59,17.30
2015,06,30,09,00,17.40
2015,06,30,09,01,17.40
2015,06,30,09,02,17.50
2015,06,30,09,03,17.60
2015,06,30,09,04,17.70
2015,06,30,09,05,17.80
2015,06,30,09,06,17.90
2015,06,30,09,07,17.90
2015,06,30,09,08,18.10
2015,06,30,09,09,18.20
2015,06,30,09,10,18.30
2015,06,30,09,11,18.50
2015,06,30,09,12,18.70
2015,06,30,09,13,18.90
2015,06,30,09,14,18.90
2015,06,30,09,15,19.10
2015,06,30,09,16,19.10
2015,06,30,09,17,19.10
2015,06,30,09,18,19.20
2015,06,30,09,19,19.30
2015,06,30,09,20,19.30
2015,06,30,09,21,19.30
2015,06,30,09,22,19.40
2015,06,30,09,23,19.40
2015,06,30,09,24,19.40
2015,06,30,09,25,19.40
2015,06,30,09,26,19.40
2015,06,30,09,28,19.50
2015,06,30,09,29,19.50
2015,06,30,09,31,19.40
2015,06,30,09,32,19.40
2015,06,30,09,33,19.40
2015,06,30,09,34,19.30
2015,06,30,09,36,19.30
2015,06,30,09,37,19.20
2015,06,30,09,38,19.10
2015,06,30,09,39,19.10
2015,06,30,09,41,18.90
2015,06,30,09,42,18.80
2015,06,30,09,43,18.70
2015,06,30,09,44,18.60
2015,06,30,09,46,18.40
2015,06,30,09,47,18.40
2015,06,30,09,48,18.40
2015,06,30,09,49,18.30
2015,06,30,09,51,18.20
2015,06,30,09,52,18.20
2015,06,30,09,53,18.20
2015,06,30,09,54,18.10
2015,06,30,09,56,18.10
2015,06,30,09,57,17.90
2015,06,30,09,58,17.90
2015,06,30,09,59,17.90
2015,06,30,10,01,17.90
2015,06,30,10,02,17.80
2015,06,30,10,03,17.80
2015,06,30,10,04,17.80
2015,06,30,10,06,17.70
2015,06,30,10,07,17.70
2015,06,30,10,08,17.70
2015,06,30,10,09,17.80
2015,06,30,10,11,17.80
2015,06,30,10,12,17.80
2015,06,30,10,13,17.70
2015,06,30,10,14,17.70
2015,06,30,10,16,17.70
2015,06,30,10,17,17.70
2015,06,30,10,18,17.70
2015,06,30,10,19,17.70
2015,06,30,10,21,17.80
2015,06,30,10,22,17.80
2015,06,30,10,23,17.90
2015,06,30,10,24,17.90
2015,06,30,10,26,18.10
2015,06,30,10,27,18.20
2015,06,30,10,28,18.20
2015,06,30,10,29,18.20
2015,06,30,10,31,18.20
2015,06,30,10,32,18.20
2015,06,30,10,33,18.20
2015,06,30,10,34,18.20
2015,06,30,10,36,18.20
2015,06,30,10,37,18.20
2015,06,30,10,38,18.30
2015,06,30,10,39,18.40
2015,06,30,10,41,18.60
2015,06,30,10,42,18.60
2015,06,30,10,43,18.70
2015,06,30,10,44,18.70
2015,06,30,10,46,18.60
2015,06,30,10,47,18.60
2015,06,30,10,48,18.60
2015,06,30,10,49,18.50
2015,06,30,10,51,18.40
2015,06,30,10,52,18.30
2015,06,30,10,53,18.30
2015,06,30,10,54,18.30
2015,06,30,10,56,18.30
2015,06,30,10,57,18.30
2015,06,30,10,58,18.30
2015,06,30,10,59,18.30
2015,06,30,11,00,18.30
2015,06,30,11,01,18.40
2015,06,30,11,02,18.40
2015,06,30,11,03,18.50
2015,06,30,11,04,18.50
2015,06,30,11,05,18.60
2015,06,30,11,06,18.70
2015,06,30,11,07,18.80
2015,06,30,11,08,18.90
2015,06,30,11,09,19.10
2015,06,30,11,10,19.10
2015,06,30,11,11,19.10
2015,06,30,11,12,19.20
2015,06,30,11,13,19.30
2015,06,30,11,14,19.40
2015,06,30,11,15,19.50
2015,06,30,11,16,19.50
2015,06,30,11,17,19.60
2015,06,30,11,18,19.60
2015,06,30,11,19,19.60
2015,06,30,11,20,19.60
2015,06,30,11,21,19.50
2015,06,30,11,22,19.40
2015,06,30,11,23,19.40
2015,06,30,11,24,19.30
2015,06,30,11,25,19.30
2015,06,30,11,26,19.30
2015,06,30,11,27,19.20
2015,06,30,11,28,19.20
2015,06,30,11,29,19.20
2015,06,30,11,30,19.30
2015,06,30,11,31,19.30
2015,06,30,11,32,19.30
2015,06,30,11,33,19.30
2015,06,30,11,34,19.30
2015,06,30,11,35,19.30
2015,06,30,11,36,19.30
2015,06,30,11,37,19.30
2015,06,30,11,38,19.40
2015,06,30,11,39,19.40
2015,06,30,11,40,19.50
2015,06,30,11,41,19.50
2015,06,30,11,42,19.50
2015,06,30,11,43,19.50
2015,06,30,11,44,19.50
2015,06,30,11,45,19.60
2015,06,30,11,46,19.70
2015,06,30,11,47,19.70
2015,06,30,11,48,19.80
2015,06,30,11,49,19.90
2015,06,30,11,50,19.90
2015,06,30,11,51,19.90
2015,06,30,11,52,20.10
2015,06,30,11,53,20.20
2015,06,30,11,54,20.20
2015,06,30,11,55,20.20
2015,06,30,11,56,20.30
2015,06,30,11,57,20.30
2015,06,30,11,59,20.40
2015,06,30,12,01,20.50
2015,06,30,12,02,20.50
2015,06,30,12,03,20.50
2015,06,30,12,04,20.60
2015,06,30,12,06,20.60
2015,06,30,12,07,20.60
2015,06,30,12,08,20.60
2015,06,30,12,09,20.60
2015,06,30,12,11,20.60
2015,06,30,12,12,20.50
2015,06,30,12,13,20.50
2015,06,30,12,14,20.40
2015,06,30,12,16,20.30
2015,06,30,12,17,20.20
2015,06,30,12,18,20.20
2015,06,30,12,19,20.20
2015,06,30,12,21,20.20
2015,06,30,12,22,20.20
2015,06,30,12,23,20.20
2015,06,30,12,24,20.10
2015,06,30,12,26,20.10
2015,06,30,12,27,19.90
2015,06,30,12,28,19.90
2015,06,30,12,29,19.90
2015,06,30,12,31,20.10
2015,06,30,12,32,20.10
2015,06,30,12,33,20.10
2015,06,30,12,34,20.10
2015,06,30,12,36,20.10
2015,06,30,12,37,20.10
2015,06,30,12,38,20.10
2015,06,30,12,39,19.90
2015,06,30,12,41,19.80
2015,06,30,12,42,19.60
2015,06,30,12,43,19.50
2015,06,30,12,44,19.40
2015,06,30,12,46,19.30
2015,06,30,12,47,19.30
2015,06,30,12,48,19.30
2015,06,30,12,49,19.30
2015,06,30,12,51,19.40
2015,06,30,12,52,19.60
2015,06,30,12,53,19.70
2015,06,30,12,54,19.80
2015,06,30,12,56,19.90
2015,06,30,12,57,20.10
2015,06,30,12,58,20.20
2015,06,30,12,59,20.20
2015,06,30,13,01,20.30
2015,06,30,13,02,20.40
2015,06,30,13,03,20.40
2015,06,30,13,04,20.40
2015,06,30,13,06,20.50
2015,06,30,13,07,20.50
2015,06,30,13,08,20.50
2015,06,30,13,09,20.60
2015,06,30,13,11,20.60
2015,06,30,13,12,20.60
2015,06,30,13,13,20.60
2015,06,30,13,14,20.70
2015,06,30,13,16,20.80
2015,06,30,13,17,20.90
2015,06,30,13,18,21.00
2015,06,30,13,19,21.10
2015,06,30,13,21,21.30
2015,06,30,13,22,21.40
2015,06,30,13,23,21.60
2015,06,30,13,24,21.70
2015,06,30,13,26,22.00
2015,06,30,13,27,22.10
2015,06,30,13,28,22.30
2015,06,30,13,29,22.40
2015,06,30,13,31,22.60
2015,06,30,13,32,22.70
2015,06,30,13,33,22.70
2015,06,30,13,34,22.70
2015,06,30,13,36,22.70
2015,06,30,13,37,22.70
2015,06,30,13,38,22.60
2015,06,30,13,39,22.60
2015,06,30,13,40,22.60
2015,06,30,13,41,22.50
2015,06,30,13,42,22.40
2015,06,30,13,43,22.30
2015,06,30,13,44,22.20
2015,06,30,13,45,22.10
2015,06,30,13,46,22.00
2015,06,30,13,47,21.80
2015,06,30,13,48,21.60
2015,06,30,13,49,21.60
2015,06,30,13,50,21.30
2015,06,30,13,51,21.30
2015,06,30,13,52,21.20
2015,06,30,13,53,21.00
2015,06,30,13,54,20.90
2015,06,30,13,55,20.90
2015,06,30,13,56,20.80
2015,06,30,13,57,20.70
2015,06,30,13,58,20.70
2015,06,30,13,59,20.70
2015,06,30,14,00,20.70
2015,06,30,14,01,20.70
2015,06,30,14,02,20.70
2015,06,30,14,03,20.70
2015,06,30,14,04,20.70
2015,06,30,14,06,20.70
2015,06,30,14,07,20.70
2015,06,30,14,08,20.70
2015,06,30,14,09,20.70
2015,06,30,14,11,20.70
2015,06,30,14,12,20.60
2015,06,30,14,13,20.60
2015,06,30,14,14,20.60
2015,06,30,14,16,20.70
2015,06,30,14,17,20.70
2015,06,30,14,18,20.80
2015,06,30,14,19,20.90
2015,06,30,14,21,20.90
2015,06,30,14,22,20.90
2015,06,30,14,23,20.90
2015,06,30,14,24,20.90
2015,06,30,14,26,20.80
2015,06,30,14,27,20.80
2015,06,30,14,28,20.70
2015,06,30,14,29,20.80
2015,06,30,14,31,20.60
2015,06,30,14,32,20.60
2015,06,30,14,33,20.60
2015,06,30,14,34,20.50
2015,06,30,14,36,20.50
2015,06,30,14,37,20.50
2015,06,30,14,38,20.40
2015,06,30,14,39,20.40
2015,06,30,14,41,20.30
2015,06,30,14,42,20.30
2015,06,30,14,43,20.30
2015,06,30,14,44,20.30
2015,06,30,14,46,20.20
2015,06,30,14,47,20.20
2015,06,30,14,48,20.10
2015,06,30,14,49,20.10
2015,06,30,14,51,19.90
2015,06,30,14,52,19.90
2015,06,30,14,53,19.90
2015,06,30,14,54,19.80
2015,06,30,14,56,19.70
2015,06,30,14,57,19.70
2015,06,30,14,58,19.60
2015,06,30,14,59,19.60
2015,06,30,15,01,19.50
2015,06,30,15,02,19.50
2015,06,30,15,03,19.40
2015,06,30,15,04,19.30
2015,06,30,15,06,19.20
2015,06,30,15,07,19.20
2015,06,30,15,08,19.20
2015,06,30,15,09,19.20
2015,06,30,15,11,19.10
2015,06,30,15,12,19.10
2015,06,30,15,13,19.10
2015,06,30,15,14,19.10
2015,06,30,15,16,19.10
2015,06,30,15,17,19.10
2015,06,30,15,18,19.10
2015,06,30,15,19,19.10
2015,06,30,15,20,19.20
2015,06,30,15,21,19.30
2015,06,30,15,22,19.30
2015,06,30,15,23,19.40
2015,06,30,15,24,19.50
2015,06,30,15,25,19.50
2015,06,30,15,26,19.50
2015,06,30,15,27,19.50
2015,06,30,15,28,19.50
2015,06,30,15,29,19.50
2015,06,30,15,30,19.50
2015,06,30,15,31,19.50
2015,06,30,15,32,19.50
2015,06,30,15,33,19.40
2015,06,30,15,34,19.40
2015,06,30,15,35,19.40
2015,06,30,15,36,19.40
2015,06,30,15,37,19.30
2015,06,30,15,38,19.20
2015,06,30,15,39,19.20
2015,06,30,15,40,19.20
2015,06,30,15,41,19.10
2015,06,30,15,42,19.10
2015,06,30,15,43,18.90
2015,06,30,15,44,18.90
2015,06,30,15,45,18.90
2015,06,30,15,46,18.90
2015,06,30,15,47,18.90
2015,06,30,15,48,18.90
2015,06,30,15,49,18.90
2015,06,30,15,50,18.90
2015,06,30,15,51,18.90
2015,06,30,15,52,19.10
2015,06,30,15,53,19.10
2015,06,30,15,54,19.10
2015,06,30,15,55,19.10
2015,06,30,15,56,19.10
2015,06,30,15,57,18.90
2015,06,30,15,58,18.90
2015,06,30,15,59,18.90
2015,06,30,16,00,18.90
2015,06,30,16,01,18.90
2015,06,30,16,02,18.90
2015,06,30,16,03,18.90
2015,06,30,16,04,18.90
2015,06,30,16,05,18.90
2015,06,30,16,06,18.90
2015,06,30,16,07,18.80
2015,06,30,16,08,18.80
2015,06,30,16,09,18.80
2015,06,30,16,10,18.70
2015,06,30,16,11,18.60
2015,06,30,16,12,18.60
2015,06,30,16,13,18.50
2015,06,30,16,14,18.50
2015,06,30,16,15,18.40
2015,06,30,16,16,18.30
2015,06,30,16,17,18.20
2015,06,30,16,18,18.20
2015,06,30,16,19,18.20
2015,06,30,16,20,18.10
2015,06,30,16,22,18.10
2015,06,30,16,23,17.90
2015,06,30,16,24,17.90
2015,06,30,16,26,17.90
2015,06,30,16,27,17.90
2015,06,30,16,28,18.10
2015,06,30,16,29,18.10
2015,06,30,16,31,18.10
2015,06,30,16,32,18.10
2015,06,30,16,33,18.20
2015,06,30,16,34,18.20
2015,06,30,16,36,18.20
2015,06,30,16,37,18.20
2015,06,30,16,38,18.20
2015,06,30,16,39,18.20
2015,06,30,16,41,18.10
2015,06,30,16,42,17.90
2015,06,30,16,43,17.90
2015,06,30,16,44,17.80
2015,06,30,16,46,17.70
2015,06,30,16,47,17.60
2015,06,30,16,48,17.60
2015,06,30,16,49,17.60
2015,06,30,16,51,17.50
2015,06,30,16,52,17.40
2015,06,30,16,53,17.40
2015,06,30,16,54,17.50
2015,06,30,16,56,17.50
2015,06,30,16,57,17.50
2015,06,30,16,58,17.50
2015,06,30,16,59,17.50
2015,06,30,17,01,17.40
2015,06,30,17,02,17.40
2015,06,30,17,03,17.40
2015,06,30,17,04,17.40
2015,06,30,17,06,17.40
2015,06,30,17,07,17.40
2015,06,30,17,08,17.40
2015,06,30,17,09,17.50
2015,06,30,17,11,17.60
2015,06,30,17,12,17.70
2015,06,30,17,13,17.70
2015,06,30,17,14,17.80
2015,06,30,17,16,17.80
2015,06,30,17,17,17.70
2015,06,30,17,18,17.70
2015,06,30,17,19,17.60
2015,06,30,17,21,17.60
2015,06,30,17,22,17.60
2015,06,30,17,23,17.60
2015,06,30,17,24,17.60
2015,06,30,17,26,17.60
2015,06,30,17,27,17.60
2015,06,30,17,28,17.70
2015,06,30,17,29,17.70
2015,06,30,17,31,17.90
2015,06,30,17,32,17.90
2015,06,30,17,33,17.80
2015,06,30,17,34,17.80
2015,06,30,17,36,17.60
2015,06,30,17,37,17.50
2015,06,30,17,38,17.40
2015,06,30,17,39,17.40
2015,06,30,17,41,17.40
2015,06,30,17,42,17.40
2015,06,30,17,43,17.40
2015,06,30,17,44,17.50
2015,06,30,17,46,17.60
2015,06,30,17,47,17.50
2015,06,30,17,48,17.50
2015,06,30,17,49,17.40
2015,06,30,17,51,17.20
2015,06,30,17,52,17.20
2015,06,30,17,53,17.10
2015,06,30,17,54,17.00
2015,06,30,17,55,17.00
2015,06,30,17,56,17.00
2015,06,30,17,57,17.00
2015,06,30,17,58,17.10
2015,06,30,17,59,17.20
2015,06,30,18,00,17.30
2015,06,30,18,01,17.30
2015,06,30,18,02,17.30
2015,06,30,18,03,17.40
2015,06,30,18,04,17.50
2015,06,30,18,05,17.50
2015,06,30,18,06,17.60
2015,06,30,18,07,17.70
2015,06,30,18,08,17.70
2015,06,30,18,09,17.70
2015,06,30,18,10,17.80
2015,06,30,18,11,17.80
2015,06,30,18,12,17.90
2015,06,30,18,13,17.90
2015,06,30,18,14,17.90
2015,06,30,18,15,17.90
2015,06,30,18,16,18.10
2015,06,30,18,17,18.20
2015,06,30,18,18,18.20
2015,06,30,18,19,18.30
2015,06,30,18,20,18.40
2015,06,30,18,21,18.40
2015,06,30,18,22,18.60
2015,06,30,18,23,18.70
2015,06,30,18,24,18.80
2015,06,30,18,25,18.90
2015,06,30,18,26,18.90
2015,06,30,18,27,19.10
2015,06,30,18,28,19.10
2015,06,30,18,29,19.10
2015,06,30,18,31,19.20
2015,06,30,18,32,19.30
2015,06,30,18,33,19.40
2015,06,30,18,34,19.40
2015,06,30,18,36,19.50
2015,06,30,18,37,19.60
2015,06,30,18,38,19.60
2015,06,30,18,39,19.60
2015,06,30,18,41,19.60
2015,06,30,18,42,19.50
2015,06,30,18,43,19.50
2015,06,30,18,44,19.40
2015,06,30,18,46,19.30
2015,06,30,18,47,19.20
2015,06,30,18,48,19.10
2015,06,30,18,49,19.10
2015,06,30,18,51,18.90
2015,06,30,18,52,18.90
2015,06,30,18,53,18.90
2015,06,30,18,54,18.90
2015,06,30,18,56,18.80
2015,06,30,18,57,18.80
2015,06,30,18,58,18.80
2015,06,30,18,59,18.90
2015,06,30,19,01,18.90
2015,06,30,19,02,18.90
2015,06,30,19,03,18.90
2015,06,30,19,04,18.90
2015,06,30,19,06,18.90
2015,06,30,19,07,18.90
2015,06,30,19,08,19.10
2015,06,30,19,09,19.10
2015,06,30,19,11,19.10
2015,06,30,19,12,19.20
2015,06,30,19,13,19.20
2015,06,30,19,14,19.30
2015,06,30,19,16,19.40
2015,06,30,19,17,19.40
2015,06,30,19,18,19.40
2015,06,30,19,19,19.40
2015,06,30,19,21,19.30
2015,06,30,19,22,19.20
2015,06,30,19,23,19.10
2015,06,30,19,24,19.10
2015,06,30,19,26,19.10
2015,06,30,19,27,19.10
2015,06,30,19,28,19.10
2015,06,30,19,29,19.10
2015,06,30,19,31,19.10
2015,06,30,19,32,19.10
2015,06,30,19,33,19.10
2015,06,30,19,34,19.10
2015,06,30,19,36,19.10
2015,06,30,19,37,19.10
2015,06,30,19,38,18.90
2015,06,30,19,39,18.90
2015,06,30,19,41,18.80
2015,06,30,19,42,18.70
2015,06,30,19,43,18.60
2015,06,30,19,44,18.50
2015,06,30,19,46,18.40
2015,06,30,19,47,18.40
2015,06,30,19,48,18.30
2015,06,30,19,49,18.30
2015,06,30,19,51,18.20
2015,06,30,19,52,18.20
2015,06,30,19,53,18.10
2015,06,30,19,54,17.90
2015,06,30,19,56,17.70
2015,06,30,19,57,17.70
2015,06,30,19,58,17.60
2015,06,30,19,59,17.50
2015,06,30,20,01,17.30